{"data":{"norad_id":66047,"intl_designator":"2025-233Q","name":"QIANFAN-105","alt_names":[],"object_type":"PAYLOAD","status":"ACTIVE","operator":null,"country":"PRC","launch_date":"2025-10-17","launch_site_code":"TAISC","launch_vehicle":null,"mission":null,"orbit_class":"UNKNOWN","rcs_meters":null,"size_class":null,"mass_kg":null,"dimensions":null,"purposes":[],"wikipedia_slug":null,"has_3d_model":false,"image_url":null,"decayed_at":null,"tle_current":{"epoch":"2026-09-20T15:52:14.833920Z","epoch_age_seconds":126433,"freshness":"FRESH","line1":"1 66047U 25233Q   26263.66128280  .00000033  00000+0  31929-4 0  9993","line2":"2 66047  89.0078  33.3134 0001812  99.0225 261.1131 13.51029845 46231","mean_motion":13.51029845,"eccentricity":0.0001812,"inclination_deg":89.0078,"raan_deg":33.3134,"arg_perigee_deg":99.0225,"mean_anomaly_deg":261.1131,"bstar":3.1929e-5,"rev_number":4623,"period_min":106.58535822353,"perigee_km":1067.1225912047,"apogee_km":1069.8212422761,"semimajor_km":7446.6089167404,"source":"CELESTRAK","updated_at":"2026-09-21T09:00:15.735461Z"}}}